Powrót do katalogu

STARLINK-37278

AktywnyŁącznośćSSO
NORAD 68733·PAYLOAD·🇺🇸 United States

Wystrzelony Apr 15, 2026 z Vandenberg Space Force Base

Loading…

Następne Przeloty (najbliższe 24 godziny)

TLE

ŚwieżeSource: CelesTrak SupGP

Epoka: Sep 14, 2026, 23:24 UTC

1 68733C 26082F   26257.97548611  .00090164  00000+0  27993-2 0  2576
2 68733  97.2849 120.2853 0001698  98.1909 279.7124 15.33388058    16

Śledź STARLINK-37278 w czasie rzeczywistym z AllMySat

Download on the App Store